TimeEDT,TemperatureF,Dew PointF,Humidity,Sea Level PressureIn,VisibilityMPH,Wind Direction,Wind SpeedMPH,Gust SpeedMPH,PrecipitationIn,Events,Conditions,WindDirDegrees,DateUTC
12:53 AM,72.0,70.0,93,29.75,10.0,SE,5.8,-,0.04,Rain,Rain,140,2013-06-27 04:53:00
1:53 AM,73.0,69.1,87,29.75,10.0,SSW,6.9,-,0.00,Rain,Rain,200,2013-06-27 05:53:00
2:53 AM,71.1,68.0,90,29.75,7.0,SSW,6.9,-,0.03,Rain,Rain,200,2013-06-27 06:53:00
3:32 AM,71.6,68.0,88,29.76,4.0,SW,4.6,-,0.06,Rain,Rain,220,2013-06-27 07:32:00
3:53 AM,71.1,68.0,90,29.74,6.0,Calm,Calm,-,0.08,Rain,Rain,0,2013-06-27 07:53:00
4:06 AM,69.8,69.8,100,29.75,6.0,South,5.8,-,0.01,Rain,Rain,190,2013-06-27 08:06:00
4:53 AM,70.0,68.0,93,29.74,8.0,South,6.9,-,0.03,Rain,Rain,190,2013-06-27 08:53:00
5:06 AM,69.8,68.0,94,29.75,9.0,SSW,4.6,-,0.01,Rain,Rain,200,2013-06-27 09:06:00
5:39 AM,69.8,66.2,88,29.75,9.0,WSW,4.6,-,0.02,Rain,Rain,240,2013-06-27 09:39:00
5:53 AM,69.1,66.9,93,29.74,8.0,SW,3.5,-,0.02,Rain,Rain,220,2013-06-27 09:53:00
6:00 AM,69.8,68.0,94,29.75,7.0,WSW,3.5,-,0.01,Rain,Rain,240,2013-06-27 10:00:00
6:53 AM,69.1,68.0,96,29.73,9.0,Calm,Calm,-,0.02,Rain,Rain,0,2013-06-27 10:53:00
7:11 AM,69.8,68.0,94,29.74,7.0,Calm,Calm,-,0.00,Rain,Rain,0,2013-06-27 11:11:00
7:53 AM,69.1,68.0,96,29.73,7.0,Calm,Calm,-,0.02,Rain,Rain,0,2013-06-27 11:53:00
8:24 AM,69.8,68.0,94,29.74,10.0,Calm,Calm,-,0.00,Rain,Rain,0,2013-06-27 12:24:00
8:35 AM,69.8,68.0,94,29.74,10.0,Calm,Calm,-,0.00,Rain,Rain,0,2013-06-27 12:35:00
8:53 AM,71.1,68.0,90,29.73,10.0,Calm,Calm,-,0.00,Rain,Rain,0,2013-06-27 12:53:00
9:22 AM,71.6,68.0,88,29.74,9.0,Calm,Calm,-,0.01,Rain,Rain,0,2013-06-27 13:22:00
9:53 AM,70.0,68.0,93,29.73,10.0,NW,4.6,-,0.01,Rain,Rain,320,2013-06-27 13:53:00
10:03 AM,71.6,68.0,88,29.74,10.0,North,3.5,-,0.00,Rain,Rain,350,2013-06-27 14:03:00
10:53 AM,72.0,68.0,87,29.73,10.0,NNW,4.6,-,0.00,Rain,Rain,340,2013-06-27 14:53:00
11:41 AM,73.4,69.8,88,29.74,10.0,NNE,4.6,-,0.00,Rain,Rain,20,2013-06-27 15:41:00
11:50 AM,73.4,69.8,88,29.74,10.0,NNE,6.9,-,0.00,Rain,Rain,30,2013-06-27 15:50:00
11:53 AM,73.0,70.0,90,29.73,10.0,NE,4.6,-,0.00,Rain,Rain,50,2013-06-27 15:53:00
12:00 PM,73.4,69.8,88,29.74,10.0,NE,5.8,-,0.00,Rain,Rain,40,2013-06-27 16:00:00
12:09 PM,73.4,68.0,83,29.74,10.0,NE,6.9,-,0.00,,Overcast,40,2013-06-27 16:09:00
12:25 PM,73.4,68.0,83,29.73,10.0,NNE,10.4,-,0.00,,Overcast,30,2013-06-27 16:25:00
12:36 PM,73.4,68.0,83,29.73,10.0,NE,10.4,-,0.00,,Overcast,40,2013-06-27 16:36:00
12:53 PM,72.0,68.0,87,29.73,10.0,NNE,12.7,-,0.00,,Overcast,30,2013-06-27 16:53:00
1:53 PM,73.9,69.1,85,29.72,10.0,North,9.2,-,N/A,,Mostly Cloudy,10,2013-06-27 17:53:00
2:53 PM,73.0,68.0,84,29.70,10.0,North,8.1,-,N/A,,Mostly Cloudy,350,2013-06-27 18:53:00
3:53 PM,75.0,69.1,82,29.70,10.0,NW,5.8,-,N/A,,Scattered Clouds,320,2013-06-27 19:53:00
4:53 PM,75.0,69.1,82,29.68,10.0,NNW,6.9,-,N/A,,Scattered Clouds,340,2013-06-27 20:53:00
5:53 PM,75.0,68.0,79,29.66,10.0,NNE,3.5,-,N/A,,Scattered Clouds,20,2013-06-27 21:53:00
6:53 PM,73.9,68.0,82,29.69,10.0,NNW,6.9,-,N/A,,Mostly Cloudy,340,2013-06-27 22:53:00
7:53 PM,72.0,68.0,87,29.70,10.0,NNE,6.9,-,N/A,,Overcast,20,2013-06-27 23:53:00
8:45 PM,71.6,68.0,88,29.69,10.0,NE,9.2,-,N/A,,Mostly Cloudy,40,2013-06-28 00:45:00
8:53 PM,71.1,68.0,90,29.67,10.0,NE,6.9,-,N/A,,Mostly Cloudy,40,2013-06-28 00:53:00
9:30 PM,69.8,66.2,88,29.67,10.0,East,3.5,-,N/A,,Scattered Clouds,100,2013-06-28 01:30:00
9:53 PM,70.0,66.9,90,29.66,10.0,SSE,5.8,-,0.00,Rain,Light Rain,150,2013-06-28 01:53:00
10:53 PM,71.1,66.0,84,29.65,10.0,Calm,Calm,-,0.00,,Mostly Cloudy,0,2013-06-28 02:53:00
11:53 PM,69.1,66.0,90,29.63,7.0,Calm,Calm,-,N/A,,Clear,0,2013-06-28 03:53:00